Weather Roundup
Issued by NWS Chicago, IL

Home | Current Version | Previous Version | Graphics & Text | Print | Product List | Glossary On
Versions: 1 2 3 4 5 6 7 8 9 10 11 12 13 14 15 16 17 18 19 20 21 22 23 24 25 26 27 28 29 30 31 32 33 34 35 36 37 38 39 40 41 42 43 44 45 46 47 48 49 50
999
NZUS59 KLOT 241109
HRRLOT

CHICAGO AREA WEATHER ROUNDUP
NATIONAL WEATHER SERVICE CHICAGO/ROMEOVILLE IL
600 AM CDT WED MAY 24 2017

NOTE: "FAIR" INDICATES FEW OR NO CLOUDS BELOW 12,000 FEET WITH NO
SIGNIFICANT WEATHER AND/OR OBSTRUCTIONS TO VISIBILITY.

* THESE STATIONS ARE NOT UNDER NWS QUALITY CONTROL. THEY ALSO MAY NOT
  REPORT WEATHER SUCH AS PRECIPITATION OR FOG.

ILZ005-006-012>014-019>023-241200-
NORTHEAST ILLINOIS

CITY           SKY/WX    TMP DP  RH WIND       PRES   REMARKS
OHARE          LGT RAIN  54  52  93 NE10      29.59F FOG
MIDWAY         LGT RAIN  55  54  96 N10       29.58F FOG
AURORA         CLOUDY    55  53  93 N9        29.60S
LANSING*       CLOUDY    54  54 100 N9G17     29.58S FOG
JOLIET*        CLOUDY    56  55  97 NE7       29.58S FOG
WAUKEGAN       LGT RAIN  51  50  96 NE7       29.61S
DUPAGE AIRPORT CLOUDY    53  53 100 NE13      29.58F
WHEELING       LGT RAIN  52  52 100 NE8       29.62S
KANKAKEE*      CLOUDY    56  55  97 CALM      29.57S FOG
MORRIS*        CLOUDY    55  54  95 CALM      29.58S FOG
LEWIS AIRPORT* CLOUDY    54  54 100 NE13      29.57F
NORTHERLY ISL    N/A     53  51  93 NW10        N/A
$$

WIZ051-052-058>065-066-070>072-241200-
SOUTHEAST WISCONSIN

CITY           SKY/WX    TMP DP  RH WIND       PRES   REMARKS
MILWAUKEE      LGT RAIN  48  47  96 N8        29.65F VSB 1/2
KENOSHA*       RAIN      50  48  93 NE5       29.63S FOG
RACINE*        LGT RAIN  47  46  97 N7        29.66S
WAUKESHA       FOG       46  46 100 N3        29.66S VSB 1
WEST BEND      CLOUDY    46  46 100 NE5       29.67S FOG
$$

INZ001>003-010>013-019-020-241200-
NORTHWEST INDIANA

CITY           SKY/WX    TMP DP  RH WIND       PRES   REMARKS
GARY*          LGT RAIN  54  52  94 N6        29.59F
MICHIGAN CITY* NOT AVBL
RENSSELAER*    NOT AVBL
VALPARAISO     CLOUDY    55  53  93 N7        29.57S FOG
$$

LMZ740>746-241200-
SOUTHERN LAKE MICHIGAN

STATION/POSITION TIME  SKY/WX   TEMP WIND        PRES    VSBY
                                AIR  DIR/SP/G
                 (UTC)          (F)  (DEG/KT/KT) (MB)    (MI)
HARRISON CRIB    1040            52  340/ 17/ 19   N/A
BURNHAM HARBOR   1100            53  340/ 13/ 14   N/A
CALUMET HARBOR   1042            53  330/  9/ 13 1001.5F
BURNS HARBOR     1040            51   20/ 13/ 16 1002.4S
MICHIGAN CITY    1040            51  340/ 18/ 19   N/A
$$

ABBREVIATIONS USED IN REMARKS
   TC - TEMPERATURE IN CELSIUS
  WCI - WIND CHILL INDEX
   HX - HEAT INDEX
  VSB - VISIBILITY
$$




USA.gov is the U.S. government's official web portal to all federal, state and local government web resources and services.